EW5659 Weather Reports


time (UTC)temp
F
wind
direction
speed
knots
gust
knots
rain 1hr
in
rain 24hr
in
rain mn
in
humidity
%
barometer
mb
20260507093511 54 360 2.6 6.1 0.00 0.00 0.00 68 1017.1
20260507093032 55 146 2.6 4.3 0.00 0.00 0.00 68 1017.1
20260507092509 54 0 0.0 7.0 0.00 0.00 0.00 69 1017.1
20260507092012 55 139 2.6 7.0 0.00 0.00 0.00 68 1017.2
20260507091530 55 162 2.6 5.2 0.00 0.00 0.00 69 1017.1
20260507091014 55 163 1.7 4.3 0.00 0.00 0.00 69 1017.1
20260507090517 54 164 0.0 5.2 0.00 0.00 0.00 71 1017.1
20260507090036 54 164 0.0 5.2 0.00 0.00 0.00 71 1017.2
20260507085511 54 164 0.9 6.1 0.00 0.00 0.00 73 1017.0
20260507085012 54 166 0.9 7.0 0.00 0.00 0.00 72 1017.0
20260507084531 54 170 2.6 7.0 0.00 0.00 0.00 74 1017.0
20260507084010 53 0 0.0 5.2 0.00 0.00 0.00 74 1017.1
20260507083513 53 173 0.9 8.7 0.00 0.00 0.00 74 1017.0
20260507083028 53 175 3.5 8.7 0.00 0.00 0.00 74 1017.1
20260507082512 53 163 0.9 3.5 0.00 0.00 0.00 75 1017.1
20260507082012 53 360 0.9 5.2 0.00 0.00 0.00 75 1017.0
20260507081541 53 360 0.9 5.2 0.00 0.00 0.00 76 1017.0
20260507081012 52 360 1.7 7.0 0.00 0.00 0.00 76 1017.0
20260507080513 52 360 2.6 7.0 0.00 0.00 0.00 76 1016.9
20260507080030 52 360 1.7 5.2 0.00 0.00 0.00 77 1017.0
20260507075516 51 360 1.7 7.0 0.00 0.00 0.00 78 1016.9
20260507075012 51 360 2.6 7.0 0.00 0.00 0.00 78 1017.0
20260507074550 51 360 2.6 4.3 0.00 0.00 0.00 78 1016.9
20260507074010 51 360 1.7 7.0 0.00 0.00 0.00 78 1017.0
20260507073511 51 360 1.7 7.0 0.00 0.00 0.00 79 1016.9
20260507073028 50 360 1.7 5.2 0.00 0.00 0.00 80 1016.8
20260507072510 50 360 1.7 5.2 0.00 0.00 0.00 81 1016.7
20260507072012 50 360 1.7 5.2 0.00 0.00 0.00 81 1016.7
20260507071529 49 360 1.7 5.2 0.00 0.00 0.00 81 1016.8
20260507071012 49 360 1.7 5.2 0.00 0.00 0.00 82 1016.6
20260507070512 49 360 2.6 5.2 0.00 0.00 0.00 82 1016.6
20260507070029 49 360 1.7 5.2 0.00 0.00 0.00 82 1016.7
20260507065512 49 360 2.6 5.2 0.00 0.00 0.00 83 1016.7
20260507065010 49 360 1.7 5.2 0.00 0.00 0.00 84 1016.7
20260507064532 48 360 2.6 5.2 0.00 0.00 0.00 84 1016.7
20260507064011 48 360 1.7 5.2 0.00 0.00 0.00 85 1016.7
20260507063511 48 360 2.6 5.2 0.00 0.00 0.00 86 1016.5
20260507063030 48 360 1.7 5.2 0.00 0.00 0.00 88 1016.6
20260507062511 47 360 1.7 5.2 0.00 0.00 0.00 89 1016.6
20260507062010 47 360 1.7 5.2 0.00 0.00 0.00 90 1016.6
20260507061532 46 360 1.7 5.2 0.00 0.00 0.00 91 1016.7
20260507061009 46 360 1.7 5.2 0.00 0.00 0.00 91 1016.6
20260507060512 46 360 0.9 5.2 0.00 0.00 0.00 91 1016.5
20260507060030 45 360 1.7 5.2 0.00 0.00 0.00 91 1016.5
20260507055512 44 360 0.9 2.6 0.00 0.00 0.00 91 1016.5
20260507055014 44 0 0.0 0.9 0.00 0.00 0.00 91 1016.5
20260507054530 43 0 0.0 0.9 0.00 0.00 0.00 91 1016.5
20260507054010 43 0 0.0 0.9 0.00 0.00 0.00 91 1016.5
20260507053513 43 0 0.0 0.9 0.00 0.00 0.00 90 1016.5
20260507053030 42 0 0.0 1.7 0.00 0.00 0.00 90 1016.4
20260507052512 42 0 0.0 1.7 0.00 0.00 0.00 90 1016.4
20260507052011 42 360 0.0 2.6 0.00 0.00 0.00 90 1016.3
20260507051530 42 0 0.0 2.6 0.00 0.00 0.00 90 1016.4
20260507051017 42 360 0.0 2.6 0.00 0.00 0.00 90 1016.3
20260507050511 43 0 0.0 1.7 0.00 0.00 0.00 90 1016.4
20260507050029 42 360 0.0 1.7 0.00 0.00 0.00 90 1016.3
20260507045511 42 360 0.9 1.7 0.00 0.00 0.00 89 1016.3
20260507045010 42 360 0.0 0.0 0.00 0.00 0.00 89 1016.2
20260507044530 42 0 0.0 0.0 0.00 0.00 0.00 89 1016.3
20260507044011 42 0 0.0 0.0 0.00 0.00 0.00 89 1016.3
20260507043511 42 0 0.0 0.0 0.00 0.00 0.00 89 1016.3
20260507043032 42 0 0.0 0.0 0.00 0.00 0.00 89 1016.3
20260507042512 43 0 0.0 0.0 0.00 0.00 0.00 89 1016.1
20260507042011 43 0 0.0 0.0 0.00 0.00 0.00 89 1016.2
20260507041531 43 0 0.0 0.0 0.00 0.00 0.00 89 1016.3
20260507041013 43 0 0.0 0.0 0.00 0.00 0.00 89 1016.2
20260507040512 43 0 0.0 0.0 0.00 0.00 0.00 89 1016.1
20260507040029 43 0 0.0 0.0 0.00 0.00 0.00 89 1016.1
20260507035514 43 0 0.0 0.0 0.00 0.00 0.00 89 1016.1
20260507035012 43 0 0.0 0.0 0.00 0.00 0.00 89 1015.9
20260507034533 43 0 0.0 0.0 0.00 0.00 0.00 89 1016.2
20260507034012 44 0 0.0 0.0 0.00 0.00 0.00 89 1016.1
20260507033514 44 0 0.0 0.0 0.00 0.00 0.00 89 1016.1
20260507033032 44 0 0.0 0.0 0.00 0.00 0.00 89 1016.1
20260507032512 44 0 0.0 0.0 0.00 0.00 0.00 89 1016.0
20260507032015 44 0 0.0 0.0 0.00 0.00 0.00 89 1016.0
20260507031531 44 0 0.0 0.9 0.00 0.00 0.00 89 1016.1
20260507031015 44 0 0.0 0.9 0.00 0.00 0.00 88 1016.0
20260507030513 44 0 0.0 0.9 0.00 0.00 0.00 88 1015.9
20260507030030 44 0 0.0 0.0 0.00 0.00 0.00 88 1016.0
20260507025513 44 0 0.0 0.0 0.00 0.00 0.00 88 1016.0
20260507025014 44 0 0.0 0.0 0.00 0.00 0.00 88 1015.9
20260507024533 44 0 0.0 0.0 0.00 0.00 0.00 88 1016.0
20260507024016 44 0 0.0 0.0 0.00 0.00 0.00 88 1016.0
20260507023514 44 0 0.0 0.0 0.00 0.00 0.00 88 1016.0
20260507023030 44 0 0.0 0.0 0.00 0.00 0.00 88 1016.0
20260507022512 44 0 0.0 0.0 0.00 0.00 0.00 88 1016.1
20260507022013 44 0 0.0 0.0 0.00 0.00 0.00 88 1016.0
20260507021534 44 0 0.0 0.0 0.00 0.00 0.00 88 1016.0
20260507021014 44 0 0.0 0.0 0.00 0.00 0.00 87 1016.0
20260507020516 44 0 0.0 0.0 0.00 0.00 0.00 87 1016.0
20260507020031 44 0 0.0 0.0 0.00 0.00 0.00 87 1015.9
20260507015515 44 0 0.0 0.0 0.00 0.00 0.00 87 1015.9
20260507015011 44 0 0.0 0.0 0.00 0.00 0.00 86 1015.9
20260507014543 44 0 0.0 0.0 0.00 0.00 0.00 86 1015.9
20260507014013 44 0 0.0 0.0 0.00 0.00 0.00 86 1015.9
20260507013516 44 0 0.0 0.0 0.00 0.00 0.00 86 1015.8
20260507013031 44 0 0.0 0.0 0.00 0.00 0.00 86 1015.8
20260507012513 44 0 0.0 0.0 0.00 0.00 0.00 85 1015.7
20260507012017 45 0 0.0 0.0 0.00 0.00 0.00 85 1015.8
20260507011533 45 0 0.0 0.9 0.00 0.00 0.00 85 1015.8
20260507011013 45 0 0.0 0.9 0.00 0.00 0.00 85 1015.6
20260507010513 45 360 0.0 0.9 0.00 0.00 0.00 85 1015.7
20260507010035 45 0 0.0 0.9 0.00 0.00 0.00 84 1015.7
20260507005514 46 0 0.0 1.7 0.00 0.00 0.00 84 1015.8
20260507005017 46 0 0.0 1.7 0.00 0.00 0.00 84 1015.7
20260507004532 46 360 0.0 1.7 0.00 0.00 0.00 84 1015.8
20260507004018 47 0 0.0 1.7 0.00 0.00 0.00 84 1015.7
20260507003514 47 360 0.0 4.3 0.00 0.00 0.00 83 1015.7
20260507003033 47 0 0.0 4.3 0.00 0.00 0.00 84 1015.6
20260507002516 47 360 0.9 7.0 0.00 0.00 0.00 84 1015.7
20260507002015 47 360 1.7 7.0 0.00 0.00 0.00 84 1015.6
20260507001532 47 360 1.7 5.2 0.00 0.00 0.00 84 1015.7
20260507001017 48 360 1.7 5.2 0.00 0.00 0.00 84 1015.6
20260507000514 48 360 2.6 5.2 0.00 0.00 0.00 84 1015.8
20260507000036 48 360 0.9 4.3 0.00 0.00 0.00 85 1015.7
20260506235513 48 360 1.7 7.0 0.00 0.00 0.00 85 1015.7
20260506235015 48 360 1.7 7.0 0.00 0.00 0.00 85 1015.7
20260506234532 48 360 1.7 5.2 0.00 0.00 0.00 86 1015.7
20260506234014 48 360 0.9 4.3 0.00 0.00 0.00 86 1015.7
20260506233514 48 360 1.7 4.3 0.00 0.00 0.00 87 1015.7
20260506233035 48 360 1.7 4.3 0.00 0.00 0.00 87 1015.7
20260506232513 48 360 1.7 7.0 0.00 0.00 0.00 88 1015.7
20260506232013 48 360 2.6 7.0 0.00 0.00 0.00 88 1015.7
20260506231531 48 360 1.7 4.3 0.00 0.00 0.00 88 1015.6
20260506231016 48 360 0.0 0.9 0.00 0.00 0.00 89 1015.5
20260506230512 48 0 0.0 0.9 0.00 0.00 0.00 88 1015.6
20260506230031 48 0 0.0 0.9 0.00 0.00 0.00 88 1015.4
20260506225515 48 0 0.0 1.7 0.00 0.00 0.00 88 1015.5
20260506225014 48 0 0.0 1.7 0.00 0.00 0.00 88 1015.5
20260506224531 48 0 0.0 2.6 0.00 0.00 0.00 88 1015.5
20260506224016 48 360 0.0 2.6 0.00 0.00 0.00 88 1015.4
20260506223514 48 360 0.0 2.6 0.00 0.00 0.00 88 1015.4
20260506223028 48 0 0.9 2.6 0.00 0.00 0.00 88 1015.3
20260506222512 48 360 0.9 2.6 0.00 0.00 0.00 88 1015.4
20260506222011 48 360 0.0 2.6 0.00 0.00 0.00 88 1015.3
20260506221532 48 360 0.0 2.6 0.00 0.00 0.00 88 1015.3
20260506221017 49 360 0.0 2.6 0.00 0.00 0.00 88 1015.2
20260506220513 48 0 0.9 2.6 0.00 0.00 0.00 87 1015.2
20260506220033 49 0 0.0 1.7 0.00 0.00 0.00 87 1015.2
20260506215516 49 0 0.0 2.6 0.00 0.00 0.00 87 1015.1
20260506215016 49 0 0.0 2.6 0.00 0.00 0.00 87 1015.1
20260506214530 49 0 0.0 2.6 0.00 0.00 0.00 87 1015.1
20260506214014 49 0 0.0 2.6 0.00 0.00 0.00 87 1015.2
20260506213512 49 0 0.0 2.6 0.00 0.00 0.00 87 1015.1
20260506213031 49 0 0.0 2.6 0.00 0.00 0.00 87 1015.2
20260506212513 49 0 0.0 2.6 0.00 0.00 0.00 87 1015.1
20260506212014 49 0 0.9 2.6 0.00 0.00 0.00 87 1015.1
20260506211534 49 360 0.9 2.6 0.00 0.00 0.00 87 1015.1
20260506211013 49 0 0.0 1.7 0.00 0.00 0.00 87 1014.9
20260506210517 49 360 0.0 1.7 0.00 0.00 0.00 87 1015.1
20260506210032 49 0 0.0 2.6 0.00 0.00 0.00 86 1015.0
20260506205515 49 360 0.9 2.6 0.00 0.00 0.00 86 1015.0
20260506205014 49 0.9 1.7 0.00 0.00 0.00 86 1014.9
20260506204534 49 360 0.9 3.5 0.00 0.00 0.00 86 1014.7
20260506204013 49 360 0.9 3.5 0.00 0.00 0.00 86 1014.8
20260506203518 49 0 0.0 2.6 0.00 0.00 0.00 86 1014.9
20260506203030 49 360 0.9 2.6 0.00 0.00 0.00 85 1014.9
20260506202513 49 0 0.0 1.7 0.00 0.00 0.00 85 1014.9
20260506202011 49 0 0.0 1.7 0.00 0.00 0.00 85 1014.8
20260506201532 49 0 0.0 2.6 0.00 0.00 0.00 85 1014.7
20260506201011 49 360 0.0 2.6 0.00 0.00 0.00 85 1014.7
20260506200519 49 360 0.9 4.3 0.00 0.00 0.00 84 1014.7
20260506200031 49 360 0.9 4.3 0.00 0.00 0.00 84 1014.6
20260506195513 49 360 1.7 7.0 0.00 0.00 0.00 84 1014.6
20260506195014 49 360 0.9 7.0 0.00 0.00 0.00 84 1014.7
20260506194528 50 360 2.6 7.8 0.00 0.00 0.00 83 1014.6
20260506194013 50 360 1.7 7.8 0.00 0.00 0.00 83 1014.6
20260506193513 50 360 3.5 8.7 0.00 0.00 0.00 82 1014.4
20260506193032 50 360 2.6 9.6 0.00 0.00 0.00 81 1014.4
20260506192516 50 360 4.3 9.6 0.00 0.00 0.00 80 1014.5
20260506192013 51 360 3.5 9.6 0.00 0.00 0.00 80 1014.5
20260506191530 51 360 2.6 7.0 0.00 0.00 0.00 79 1014.4
20260506191014 51 360 1.7 7.0 0.00 0.00 0.00 79 1014.3
20260506190514 51 360 1.7 7.0 0.00 0.00 0.00 79 1014.3
20260506190030 51 360 1.7 5.2 0.00 0.00 0.00 78 1014.3
20260506185510 51 360 1.7 7.0 0.00 0.00 0.00 77 1014.2
20260506185013 51 360 1.7 7.0 0.00 0.00 0.00 76 1014.2
20260506184531 52 360 2.6 7.0 0.00 0.00 0.00 76 1014.1
20260506184014 52 360 1.7 4.3 0.00 0.00 0.00 75 1014.0
20260506183514 52 360 1.7 5.2 0.00 0.00 0.00 75 1014.0
20260506183030 52 360 1.7 7.0 0.00 0.00 0.00 74 1013.9
20260506182513 52 360 2.6 7.0 0.00 0.00 0.00 73 1013.8
20260506182011 53 360 2.6 8.7 0.00 0.00 0.00 72 1013.7
20260506181530 53 360 4.3 8.7 0.00 0.00 0.00 70 1013.7
20260506181017 54 360 0.9 4.3 0.00 0.00 0.00 68 1013.7
20260506180515 54 360 0.9 7.0 0.00 0.00 0.00 67 1013.6
20260506180034 54 360 1.7 7.0 0.00 0.00 0.00 66 1013.6
20260506175514 54 360 0.9 7.0 0.00 0.00 0.00 68 1013.5
20260506175013 54 360 1.7 7.0 0.00 0.00 0.00 68 1013.5
20260506174531 54 360 2.6 5.2 0.00 0.00 0.00 68 1013.4
20260506174013 54 360 0.9 5.2 0.00 0.00 0.00 69 1013.4
20260506173515 54 360 1.7 9.6 0.00 0.00 0.00 68 1013.3
20260506173029 54 360 2.6 9.6 0.00 0.00 0.00 67 1013.4
20260506172514 54 360 3.5 8.7 0.00 0.00 0.00 67 1013.4
20260506172013 54 360 4.3 8.7 0.00 0.00 0.00 67 1013.4
20260506171532 54 360 2.6 7.8 0.00 0.00 0.00 67 1013.4
20260506171013 54 329 1.7 8.7 0.00 0.00 0.00 67 1013.3
20260506170513 54 13 2.6 8.7 0.00 0.00 0.00 66 1013.3
20260506170030 54 23 3.5 8.7 0.00 0.00 0.00 66 1013.4
20260506165515 54 360 3.5 7.8 0.00 0.00 0.00 66 1013.2
20260506165014 54 348 1.7 7.0 0.00 0.00 0.00 66 1013.3
20260506164532 54 18 2.6 7.8 0.00 0.00 0.00 65 1013.3
20260506164013 54 19 2.6 7.8 0.00 0.00 0.00 65 1013.4
20260506163513 54 30 4.3 8.7 0.00 0.00 0.00 65 1013.3
20260506163053 55 34 2.6 10.4 0.00 0.00 0.00 64 1013.3
20260506162519 55 14 1.7 10.4 0.00 0.00 0.00 63 1013.4
20260506162014 55 17 1.7 8.7 0.00 0.00 0.00 64 1013.4
20260506161533 55 17 2.6 8.7 0.00 0.00 0.00 64 1013.3
20260506161013 54 26 3.5 11.3 0.00 0.00 0.00 64 1013.3
20260506160514 55 13 4.3 11.3 0.00 0.00 0.00 64 1013.4
20260506160032 55 30 4.3 8.7 0.00 0.00 0.00 64 1013.3
20260506155514 55 360 2.6 7.8 0.00 0.00 0.00 65 1013.2
20260506155013 54 360 1.7 7.8 0.00 0.00 0.00 65 1013.3
20260506154532 54 360 3.5 7.8 0.00 0.00 0.00 65 1013.3
20260506154014 54 360 1.7 7.8 0.00 0.00 0.00 65 1013.3
20260506153513 54 360 2.6 9.6 0.00 0.00 0.00 65 1013.4
20260506153031 54 360 3.5 9.6 0.00 0.00 0.00 65 1013.3
20260506152514 54 360 2.6 7.8 0.00 0.00 0.00 65 1013.3
20260506152010 54 360 2.6 7.8 0.00 0.00 0.00 66 1013.3
20260506151532 54 360 2.6 8.7 0.00 0.00 0.00 66 1013.3
20260506151014 53 360 4.3 9.6 0.00 0.00 0.00 66 1013.4
20260506150514 53 360 2.6 10.4 0.00 0.00 0.00 66 1013.3
20260506150030 53 360 4.3 10.4 0.00 0.00 0.00 66 1013.3
20260506145517 53 360 4.3 9.6 0.00 0.00 0.00 66 1013.3
20260506145013 53 360 4.3 10.4 0.00 0.00 0.00 66 1013.4
20260506144532 53 360 3.5 10.4 0.00 0.00 0.00 67 1013.3
20260506144015 53 360 5.2 10.4 0.00 0.00 0.00 68 1013.3
20260506143517 53 360 5.2 9.6 0.00 0.00 0.00 67 1013.3
20260506143040 53 360 3.5 8.7 0.00 0.00 0.00 68 1013.2
20260506142512 53 360 3.5 8.7 0.00 0.00 0.00 68 1013.3
20260506142013 53 360 2.6 9.6 0.00 0.00 0.00 68 1013.2
20260506141535 53 360 4.3 9.6 0.00 0.00 0.00 68 1013.3
20260506141011 54 360 4.3 9.6 0.00 0.00 0.00 67 1013.2
20260506140512 54 360 4.3 9.6 0.00 0.00 0.00 67 1013.2
20260506140032 54 360 5.2 9.6 0.00 0.00 0.00 67 1013.3
20260506135511 54 360 3.5 12.2 0.00 0.00 0.00 67 1013.3
20260506135013 54 360 5.2 12.2 0.00 0.00 0.00 66 1013.3
20260506134530 54 25 4.3 12.2 0.00 0.00 0.00 66 1013.3
20260506134020 54 360 4.3 12.2 0.00 0.00 0.00 64 1013.3
20260506133513 54 14 6.1 12.2 0.00 0.00 0.00 64 1013.3
20260506133030 54 360 5.2 12.2 0.00 0.00 0.00 66 1013.2
20260506132511 54 360 4.3 9.6 0.00 0.00 0.00 66 1013.3
20260506132012 54 360 3.5 10.4 0.00 0.00 0.00 68 1013.3
20260506131532 54 360 1.7 10.4 0.00 0.00 0.00 68 1013.3
20260506131013 54 360 3.5 11.3 0.00 0.00 0.00 68 1013.2
20260506130514 54 360 6.1 12.2 0.00 0.00 0.00 67 1013.3
20260506130031 54 360 5.2 12.2 0.00 0.00 0.00 66 1013.2
20260506125511 55 360 3.5 9.6 0.00 0.00 0.00 68 1013.3
20260506125013 54 360 3.5 9.6 0.00 0.00 0.00 68 1013.3
20260506124529 54 360 2.6 9.6 0.00 0.00 0.00 68 1013.2
20260506124013 54 360 5.2 9.6 0.00 0.00 0.00 67 1013.2
20260506123511 55 333 2.6 10.4 0.00 0.00 0.00 67 1013.2
20260506123033 55 330 3.5 10.4 0.00 0.00 0.00 68 1013.1
20260506122514 55 14 4.3 10.4 0.00 0.00 0.00 68 1013.1
20260506122012 55 333 1.7 10.4 0.00 0.00 0.00 68 1013.1
20260506121538 55 346 3.5 9.6 0.00 0.00 0.00 68 1013.3
20260506121014 55 360 2.6 13.0 0.00 0.00 0.00 70 1013.3
20260506120512 54 360 5.2 13.0 0.00 0.00 0.00 69 1013.3
20260506120030 54 360 5.2 10.4 0.00 0.00 0.00 68 1013.3
20260506115512 54 360 4.3 10.4 0.00 0.00 0.00 68 1013.3
20260506115013 54 360 4.3 11.3 0.00 0.00 0.00 69 1013.3
20260506114538 54 360 4.3 12.2 0.00 0.00 0.00 70 1013.3
20260506114012 54 360 7.0 12.2 0.00 0.00 0.00 69 1013.4
20260506113512 54 360 5.2 12.2 0.00 0.00 0.00 69 1013.3
20260506113029 55 360 7.0 12.2 0.00 0.00 0.00 68 1013.3
20260506112514 53 360 6.1 12.2 0.00 0.00 0.00 72 1013.3
20260506112016 53 360 5.2 12.2 0.00 0.00 0.00 74 1013.2
20260506111537 53 360 7.0 12.2 0.00 0.00 0.00 73 1013.2
20260506111014 53 360 5.2 12.2 0.00 0.00 0.00 73 1013.3
20260506110517 53 360 3.5 12.2 0.00 0.00 0.00 74 1013.3
20260506110031 52 360 6.1 12.2 0.00 0.00 0.00 73 1013.2
20260506105513 51 360 5.2 11.3 0.00 0.00 0.00 75 1013.3
20260506105014 51 360 3.5 10.4 0.00 0.00 0.00 75 1013.5
20260506104533 51 360 4.3 10.4 0.00 0.00 0.00 76 1013.4
20260506104013 51 360 2.6 9.6 0.00 0.00 0.00 78 1013.3
20260506103511 51 360 3.5 13.0 0.00 0.00 0.00 79 1013.3
20260506103032 51 360 6.1 13.0 0.00 0.00 0.00 78 1013.3
20260506102511 51 360 4.3 11.3 0.00 0.00 0.00 77 1013.2
20260506102014 51 360 6.1 11.3 0.00 0.00 0.00 77 1013.3
20260506101534 51 19 4.3 8.7 0.00 0.00 0.00 77 1013.2
20260506101013 52 360 3.5 10.4 0.00 0.00 0.00 76 1013.2
20260506100512 52 360 3.5 10.4 0.00 0.00 0.00 76 1013.2
20260506100031 52 360 3.5 9.6 0.00 0.00 0.00 75 1013.2
20260506095511 52 360 2.6 11.3 0.00 0.00 0.00 75 1013.2
20260506095017 52 360 3.5 11.3 0.00 0.00 0.00 75 1013.2
20260506094530 52 360 5.2 11.3 0.00 0.00 0.00 75 1013.3
20260506094013 51 360 4.3 11.3 0.00 0.00 0.00 76 1013.3